Regional Weather Roundup
Issued by NWS

Home | Current Version | Previous Version | Graphics & Text | Print | Product List | Glossary On
Versions: 1 2 3 4 5 6 7 8 9 10 11 12 13 14 15 16 17 18 19 20 21 22 23 24 25 26 27 28 29 30 31 32 33 34 35 36 37 38 39 40 41 42 43 44 45 46 47 48 49 50
000
ASUS45 KCYS 211410
RWRWY

WYOMING REGIONAL WEATHER ROUNDUP
NATIONAL WEATHER SERVICE CHEYENNE WY
800 AM MDT MON JUL 21 2014

NOTE:  "FAIR" INDICATES FEW OR NO CLOUDS BELOW 12,000 FEET
WITH NO SIGNIFICANT WEATHER AND/OR OBSTRUCTIONS TO VISIBILITY.

WYZ001-211500-
YELLOWSTONE NATIONAL PARK

CITY           SKY/WX    TMP DP  RH WIND       PRES   REMARKS
LK YELLOWSTONE   N/A     55  49  80 CALM      30.26S
W YELLOWSTONE  NOT AVBL

$$
WYZ002>013-054>058-071-098>099-211500-
NORTHERN WYOMING

CITY           SKY/WX    TMP DP  RH WIND       PRES   REMARKS
JACKSON        NOT AVBL
CODY           CLOUDY    73  46  38 SW5       30.02S
GREYBULL       CLOUDY    70  54  56 CALM      29.97R THUNDER
WORLAND        PTSUNNY   77  48  35 NE7       29.96R
SHERIDAN       CLOUDY    66  55  67 SW5       29.95R
BUFFALO        LGT RAIN  70  51  51 W8        30.00R
GILLETTE       PTSUNNY   75  48  38 W14       29.93R
HULETT         FAIR      77  48  36 MISG      29.92
NEWCASTLE      FAIR      79  39  24 MISG      29.95

$$
WYZ014>020-022>026-101>103-211500-
CENTRAL WYOMING

CITY           SKY/WX    TMP DP  RH WIND       PRES   REMARKS
BIG PINEY      MOSUNNY   58  49  72 CALM      30.26R
PINEDALE       PTSUNNY   57  50  77 E3        30.26S
DUBOIS         FAIR      61  43  51 NW10G23   30.21R
LANDER         SUNNY     75  43  31 W5        30.09R
RIVERTON       MOSUNNY   76  41  28 W9        30.10R
CASPER         SUNNY     71  44  37 SW23      30.09R
DOUGLAS        MOSUNNY   73  44  35 W7        30.06R

$$
WYZ021-027>030-104>119-211500-
SOUTHERN WYOMING

CITY           SKY/WX    TMP DP  RH WIND       PRES   REMARKS
EVANSTON       SUNNY     59  46  62 S6        30.26R
KEMMERER       SUNNY     59  48  67 CALM      30.28R
FORT BRIDGER   FAIR      59  45  60 W3        30.28R
ROCK SPRINGS   SUNNY     63  42  46 CALM      30.24R
DIXON          FAIR      60  48  65 S5        30.28S
RAWLINS        SUNNY     73  41  31 W12       30.23R
SARATOGA       FAIR      68  43  40 SE6       30.27R
LARAMIE        SUNNY     68  44  42 SW17G25   30.26R
CHEYENNE       SUNNY     73  47  39 W9        30.18R
TORRINGTON     SUNNY     72  52  49 S5        30.00R
PINE BLUFFS    FAIR      77  45  31 W10       30.11R

$$


USA.gov is the U.S. government's official web portal to all federal, state and local government web resources and services.